Time,TemperatureF,DewpointF,PressureIn,WindDirection,WindDirectionDegrees,WindSpeedMPH,WindSpeedGustMPH,Humidity,HourlyPrecipIn,Conditions,Clouds,dailyrainin,SoftwareType,DateUTC
2013-01-19 00:02:00,35.0,28.0,26.91,WSW,243,8.0,10.0,78,0.00,,,-99.99,,2013-01-19 06:02:00,
2013-01-19 00:07:00,35.0,28.0,26.91,WSW,255,8.0,10.0,78,0.00,,,-99.99,,2013-01-19 06:07:00,
2013-01-19 00:12:00,35.0,28.0,26.91,WSW,250,9.0,10.0,78,0.00,,,-99.99,,2013-01-19 06:12:00,
2013-01-19 00:17:00,36.0,30.0,26.91,WNW,288,10.0,13.0,78,0.00,,,-99.99,,2013-01-19 06:17:00,
2013-01-19 00:22:00,37.0,30.0,26.91,WNW,290,10.0,12.0,77,0.00,,,-99.99,,2013-01-19 06:22:00,
2013-01-19 00:27:00,38.0,32.0,26.91,WNW,298,10.0,12.0,76,0.00,,,-99.99,,2013-01-19 06:27:00,
2013-01-19 00:32:00,38.0,30.0,26.91,NW,306,10.0,12.0,75,0.00,,,-99.99,,2013-01-19 06:32:00,
2013-01-19 00:37:00,38.0,30.0,26.91,NW,307,10.0,13.0,75,0.00,,,-99.99,,2013-01-19 06:37:00,
2013-01-19 00:47:00,38.0,30.0,26.92,WNW,298,11.0,14.0,73,0.00,,,-99.99,,2013-01-19 06:47:00,
2013-01-19 00:52:00,38.0,30.0,26.92,West,281,8.0,10.0,74,0.00,,,-99.99,,2013-01-19 06:52:00,
2013-01-19 00:57:00,38.0,30.0,26.92,SW,231,6.0,9.0,73,0.00,,,-99.99,,2013-01-19 06:57:00,
2013-01-19 01:02:00,38.0,30.0,26.92,WNW,282,10.0,13.0,74,0.00,,,-99.99,,2013-01-19 07:02:00,
2013-01-19 01:07:00,38.0,30.0,26.92,West,268,11.0,13.0,74,0.00,,,-99.99,,2013-01-19 07:07:00,
2013-01-19 01:12:00,38.0,30.0,26.92,West,265,10.0,12.0,74,0.00,,,-99.99,,2013-01-19 07:12:00,
2013-01-19 01:17:00,38.0,30.0,26.92,West,266,9.0,12.0,74,0.00,,,-99.99,,2013-01-19 07:17:00,
2013-01-19 01:22:00,38.0,30.0,26.92,West,274,9.0,13.0,74,0.00,,,-99.99,,2013-01-19 07:22:00,
2013-01-19 01:27:00,38.0,30.0,26.92,West,264,9.0,11.0,73,0.00,,,-99.99,,2013-01-19 07:27:00,
2013-01-19 01:32:00,37.0,30.0,26.92,WSW,244,7.0,8.0,74,0.00,,,-99.99,,2013-01-19 07:32:00,
2013-01-19 01:37:00,36.0,28.0,26.92,WSW,258,8.0,9.0,75,0.00,,,-99.99,,2013-01-19 07:37:00,
2013-01-19 01:42:00,35.0,28.0,26.92,SW,228,6.0,7.0,76,0.00,,,-99.99,,2013-01-19 07:42:00,
2013-01-19 01:47:00,34.0,28.0,26.92,WSW,237,8.0,10.0,77,0.00,,,-99.99,,2013-01-19 07:47:00,
2013-01-19 01:52:00,33.0,27.0,26.92,WSW,241,9.0,11.0,79,0.00,,,-99.99,,2013-01-19 07:52:00,
2013-01-19 01:57:00,33.0,27.0,26.92,WSW,241,9.0,12.0,79,0.00,,,-99.99,,2013-01-19 07:57:00,
2013-01-19 02:02:00,33.0,28.0,26.92,WSW,244,8.0,9.0,80,0.00,,,-99.99,,2013-01-19 08:02:00,
2013-01-19 02:07:00,32.0,27.0,26.92,WSW,243,8.0,10.0,81,0.00,,,-99.99,,2013-01-19 08:07:00,
2013-01-19 02:12:00,32.0,27.0,26.92,WSW,244,9.0,11.0,82,0.00,,,-99.99,,2013-01-19 08:12:00,
2013-01-19 02:17:00,32.0,27.0,26.92,WSW,250,9.0,10.0,82,0.00,,,-99.99,,2013-01-19 08:17:00,
2013-01-19 02:22:00,32.0,27.0,26.92,WSW,252,9.0,11.0,83,0.00,,,-99.99,,2013-01-19 08:22:00,
2013-01-19 02:27:00,32.0,27.0,26.92,West,266,9.0,11.0,83,0.00,,,-99.99,,2013-01-19 08:27:00,
2013-01-19 02:32:00,32.0,27.0,26.92,WSW,255,9.0,11.0,83,0.00,,,-99.99,,2013-01-19 08:32:00,
2013-01-19 02:37:00,32.0,27.0,26.93,WSW,250,9.0,11.0,83,0.00,,,-99.99,,2013-01-19 08:37:00,
2013-01-19 02:42:00,31.0,27.0,26.93,WSW,255,8.0,9.0,83,0.00,,,-99.99,,2013-01-19 08:42:00,
2013-01-19 02:47:00,31.0,27.0,26.93,WSW,252,7.0,10.0,84,0.00,,,-99.99,,2013-01-19 08:47:00,
2013-01-19 02:52:00,31.0,27.0,26.93,WSW,251,8.0,9.0,84,0.00,,,-99.99,,2013-01-19 08:52:00,
2013-01-19 02:57:00,31.0,27.0,26.93,WSW,251,7.0,9.0,84,0.00,,,-99.99,,2013-01-19 08:57:00,
2013-01-19 03:02:00,31.0,27.0,26.93,WSW,258,8.0,10.0,84,0.00,,,-99.99,,2013-01-19 09:02:00,
2013-01-19 03:07:00,31.0,27.0,26.93,WSW,254,8.0,11.0,83,0.00,,,-99.99,,2013-01-19 09:07:00,
2013-01-19 03:12:00,31.0,27.0,26.93,WSW,258,9.0,12.0,84,0.00,,,-99.99,,2013-01-19 09:12:00,
2013-01-19 03:17:00,31.0,27.0,26.94,West,266,8.0,11.0,84,0.00,,,-99.99,,2013-01-19 09:17:00,
2013-01-19 03:22:00,31.0,27.0,26.94,West,279,7.0,9.0,84,0.00,,,-99.99,,2013-01-19 09:22:00,
2013-01-19 03:27:00,31.0,27.0,26.94,West,276,9.0,11.0,84,0.00,,,-99.99,,2013-01-19 09:27:00,
2013-01-19 03:32:00,31.0,27.0,26.94,West,274,10.0,13.0,84,0.00,,,-99.99,,2013-01-19 09:32:00,
2013-01-19 03:37:00,32.0,27.0,26.93,West,274,10.0,12.0,83,0.00,,,-99.99,,2013-01-19 09:37:00,
2013-01-19 03:42:00,32.0,27.0,26.93,West,281,9.0,11.0,83,0.00,,,-99.99,,2013-01-19 09:42:00,
2013-01-19 03:47:00,32.0,27.0,26.93,WNW,286,9.0,12.0,82,0.00,,,-99.99,,2013-01-19 09:47:00,
2013-01-19 03:52:00,33.0,28.0,26.93,WNW,293,10.0,12.0,82,0.00,,,-99.99,,2013-01-19 09:52:00,
2013-01-19 03:57:00,33.0,28.0,26.93,WNW,296,10.0,12.0,82,0.00,,,-99.99,,2013-01-19 09:57:00,
2013-01-19 04:02:00,34.0,28.0,26.93,WNW,299,9.0,11.0,81,0.00,,,-99.99,,2013-01-19 10:02:00,
2013-01-19 04:07:00,34.0,28.0,26.93,WNW,286,7.0,8.0,80,0.00,,,-99.99,,2013-01-19 10:07:00,
2013-01-19 04:12:00,34.0,28.0,26.94,West,268,6.0,7.0,79,0.00,,,-99.99,,2013-01-19 10:12:00,
2013-01-19 04:17:00,33.0,28.0,26.94,West,264,6.0,8.0,80,0.00,,,-99.99,,2013-01-19 10:17:00,
2013-01-19 04:22:00,31.0,27.0,26.94,WSW,258,6.0,7.0,82,0.00,,,-99.99,,2013-01-19 10:22:00,
2013-01-19 04:27:00,31.0,27.0,26.94,West,274,7.0,10.0,83,0.00,,,-99.99,,2013-01-19 10:27:00,
2013-01-19 04:32:00,32.0,27.0,26.94,WNW,286,8.0,10.0,82,0.00,,,-99.99,,2013-01-19 10:32:00,
2013-01-19 04:37:00,34.0,28.0,26.93,WNW,295,10.0,14.0,81,0.00,,,-99.99,,2013-01-19 10:37:00,
2013-01-19 04:42:00,36.0,30.0,26.94,NW,305,11.0,13.0,79,0.00,,,-99.99,,2013-01-19 10:42:00,
2013-01-19 04:47:00,36.0,30.0,26.94,NW,307,10.0,12.0,78,0.00,,,-99.99,,2013-01-19 10:47:00,
2013-01-19 04:52:00,37.0,30.0,26.94,WNW,303,10.0,13.0,77,0.00,,,-99.99,,2013-01-19 10:52:00,
2013-01-19 04:57:00,37.0,30.0,26.94,NW,310,10.0,14.0,76,0.00,,,-99.99,,2013-01-19 10:57:00,
2013-01-19 05:02:00,38.0,30.0,26.94,WNW,288,9.0,12.0,75,0.00,,,-99.99,,2013-01-19 11:02:00,
2013-01-19 05:07:00,38.0,30.0,26.95,WNW,292,8.0,11.0,74,0.00,,,-99.99,,2013-01-19 11:07:00,
2013-01-19 05:12:00,38.0,30.0,26.95,NW,307,5.0,7.0,73,0.00,,,-99.99,,2013-01-19 11:12:00,
2013-01-19 06:52:00,35.0,28.0,26.98,NW,319,14.0,16.0,77,0.00,,,-99.99,,2013-01-19 12:52:00,
2013-01-19 06:57:00,35.0,28.0,26.99,NW,316,14.0,18.0,77,0.00,,,-99.99,,2013-01-19 12:57:00,
2013-01-19 07:02:00,36.0,30.0,26.99,NW,310,16.0,19.0,77,0.00,,,-99.99,,2013-01-19 13:02:00,
2013-01-19 07:07:00,36.0,30.0,26.99,NW,316,16.0,19.0,77,0.00,,,-99.99,,2013-01-19 13:07:00,
2013-01-19 07:12:00,36.0,30.0,26.99,NW,307,15.0,18.0,77,0.00,,,-99.99,,2013-01-19 13:12:00,
2013-01-19 07:17:00,36.0,28.0,26.99,NW,317,15.0,18.0,76,0.00,,,-99.99,,2013-01-19 13:17:00,
2013-01-19 07:22:00,36.0,28.0,27.00,NW,305,17.0,20.0,76,0.00,,,-99.99,,2013-01-19 13:22:00,
2013-01-19 07:27:00,35.0,28.0,27.00,NW,319,15.0,20.0,76,0.00,,,-99.99,,2013-01-19 13:27:00,
2013-01-19 07:33:00,35.0,28.0,27.00,NNW,327,14.0,17.0,77,0.00,,,-99.99,,2013-01-19 13:33:00,
2013-01-19 07:42:00,35.0,28.0,27.01,NW,312,14.0,17.0,77,0.00,,,-99.99,,2013-01-19 13:42:00,
2013-01-19 07:47:00,35.0,28.0,27.01,NW,324,13.0,16.0,77,0.00,,,-99.99,,2013-01-19 13:47:00,
2013-01-19 07:52:00,34.0,28.0,27.01,NW,320,13.0,16.0,78,0.00,,,-99.99,,2013-01-19 13:52:00,
2013-01-19 07:57:00,34.0,28.0,27.01,NW,326,13.0,15.0,78,0.00,,,-99.99,,2013-01-19 13:57:00,
2013-01-19 08:02:00,34.0,28.0,27.02,NNW,329,14.0,16.0,78,0.00,,,-99.99,,2013-01-19 14:02:00,
2013-01-19 08:07:00,34.0,28.0,27.02,NW,319,16.0,19.0,78,0.00,,,-99.99,,2013-01-19 14:07:00,
2013-01-19 08:12:00,35.0,28.0,27.03,NW,323,15.0,18.0,78,0.00,,,-99.99,,2013-01-19 14:12:00,
2013-01-19 08:17:00,35.0,28.0,27.03,NW,321,15.0,17.0,78,0.00,,,-99.99,,2013-01-19 14:17:00,
2013-01-19 08:22:00,35.0,28.0,27.03,NW,305,14.0,16.0,78,0.00,,,-99.99,,2013-01-19 14:22:00,
2013-01-19 08:27:00,35.0,28.0,27.03,NW,319,13.0,16.0,78,0.00,,,-99.99,,2013-01-19 14:27:00,
2013-01-19 08:33:00,35.0,28.0,27.04,NW,314,12.0,14.0,78,0.00,,,-99.99,,2013-01-19 14:33:00,
2013-01-19 08:42:00,35.0,28.0,27.04,WNW,302,11.0,14.0,77,0.00,,,-99.99,,2013-01-19 14:42:00,
2013-01-19 08:47:00,36.0,30.0,27.04,NW,317,15.0,17.0,77,0.00,,,-99.99,,2013-01-19 14:47:00,
2013-01-19 08:52:00,36.0,28.0,27.04,NW,321,16.0,20.0,76,0.00,,,-99.99,,2013-01-19 14:52:00,
2013-01-19 08:57:00,37.0,30.0,27.05,NW,314,17.0,19.0,75,0.00,,,-99.99,,2013-01-19 14:57:00,
2013-01-19 09:02:00,38.0,30.0,27.05,NW,313,17.0,19.0,74,0.00,,,-99.99,,2013-01-19 15:02:00,
2013-01-19 09:07:00,38.0,30.0,27.05,NW,309,15.0,18.0,74,0.00,,,-99.99,,2013-01-19 15:07:00,
2013-01-19 09:12:00,38.0,30.0,27.06,NW,319,16.0,19.0,73,0.00,,,-99.99,,2013-01-19 15:12:00,
2013-01-19 09:17:00,39.0,30.0,27.06,WNW,303,17.0,20.0,73,0.00,,,-99.99,,2013-01-19 15:17:00,
2013-01-19 09:22:00,39.0,30.0,27.06,NW,312,16.0,19.0,71,0.00,,,-99.99,,2013-01-19 15:22:00,
2013-01-19 09:27:00,40.0,32.0,27.06,NNW,327,16.0,18.0,71,0.00,,,-99.99,,2013-01-19 15:27:00,
2013-01-19 09:32:00,40.0,30.0,27.07,NW,305,15.0,18.0,70,0.00,,,-99.99,,2013-01-19 15:32:00,
2013-01-19 09:37:00,41.0,32.0,27.07,NW,314,14.0,17.0,70,0.00,,,-99.99,,2013-01-19 15:37:00,
2013-01-19 09:42:00,41.0,32.0,27.07,NW,314,15.0,18.0,69,0.00,,,-99.99,,2013-01-19 15:42:00,
2013-01-19 09:47:00,42.0,32.0,27.07,NW,313,15.0,17.0,68,0.00,,,-99.99,,2013-01-19 15:47:00,
2013-01-19 09:52:00,42.0,32.0,27.07,NW,310,16.0,19.0,68,0.00,,,-99.99,,2013-01-19 15:52:00,
2013-01-19 09:57:00,42.0,32.0,27.08,NW,307,17.0,21.0,67,0.00,,,-99.99,,2013-01-19 15:57:00,
2013-01-19 10:02:00,43.0,32.0,27.08,NW,309,17.0,19.0,66,0.00,,,-99.99,,2013-01-19 16:02:00,
2013-01-19 10:07:00,43.0,32.0,27.08,NW,310,17.0,19.0,66,0.00,,,-99.99,,2013-01-19 16:07:00,
2013-01-19 10:12:00,43.0,32.0,27.09,NW,306,17.0,20.0,66,0.00,,,-99.99,,2013-01-19 16:12:00,
2013-01-19 10:17:00,43.0,32.0,27.09,WNW,300,17.0,20.0,65,0.00,,,-99.99,,2013-01-19 16:17:00,
2013-01-19 10:22:00,44.0,34.0,27.09,NW,314,17.0,20.0,65,0.00,,,-99.99,,2013-01-19 16:22:00,
2013-01-19 10:32:00,44.0,32.0,27.09,NW,324,18.0,20.0,64,0.00,,,-99.99,,2013-01-19 16:32:00,
2013-01-19 10:37:00,45.0,34.0,27.09,NW,316,17.0,20.0,64,0.00,,,-99.99,,2013-01-19 16:37:00,
2013-01-19 10:42:00,45.0,34.0,27.10,NW,307,19.0,21.0,64,0.00,,,-99.99,,2013-01-19 16:42:00,
2013-01-19 10:52:00,45.0,34.0,27.10,NW,317,18.0,20.0,63,0.00,,,-99.99,,2013-01-19 16:52:00,
2013-01-19 10:57:00,45.0,34.0,27.10,NW,305,18.0,21.0,63,0.00,,,-99.99,,2013-01-19 16:57:00,
2013-01-19 11:02:00,45.0,34.0,27.10,NW,320,18.0,21.0,63,0.00,,,-99.99,,2013-01-19 17:02:00,
2013-01-19 11:07:00,46.0,34.0,27.11,NW,321,15.0,19.0,63,0.00,,,-99.99,,2013-01-19 17:07:00,
2013-01-19 11:13:00,46.0,34.0,27.10,NW,324,14.0,16.0,63,0.00,,,-99.99,,2013-01-19 17:13:00,
2013-01-19 11:22:00,47.0,34.0,27.10,NNW,334,15.0,17.0,62,0.00,,,-99.99,,2013-01-19 17:22:00,
2013-01-19 11:32:00,48.0,36.0,27.10,NW,324,17.0,20.0,61,0.00,,,-99.99,,2013-01-19 17:32:00,
2013-01-19 11:37:00,48.0,36.0,27.09,NW,316,19.0,21.0,60,0.00,,,-99.99,,2013-01-19 17:37:00,
2013-01-19 11:42:00,48.0,36.0,27.09,NW,314,19.0,21.0,60,0.00,,,-99.99,,2013-01-19 17:42:00,
2013-01-19 11:47:00,49.0,36.0,27.09,NW,319,18.0,22.0,59,0.00,,,-99.99,,2013-01-19 17:47:00,
2013-01-19 11:53:00,49.0,36.0,27.09,NNW,327,20.0,23.0,58,0.00,,,-99.99,,2013-01-19 17:53:00,
2013-01-19 12:02:00,50.0,36.0,27.09,NW,319,18.0,22.0,58,0.00,,,-99.99,,2013-01-19 18:02:00,
2013-01-19 12:12:00,50.0,36.0,27.08,NW,321,19.0,23.0,57,0.00,,,-99.99,,2013-01-19 18:12:00,
2013-01-19 12:22:00,51.0,36.0,27.09,NNW,329,20.0,23.0,56,0.00,,,-99.99,,2013-01-19 18:22:00,
2013-01-19 12:27:00,51.0,36.0,27.09,NW,323,20.0,23.0,55,0.00,,,-99.99,,2013-01-19 18:27:00,
2013-01-19 12:32:00,51.0,36.0,27.08,NNW,334,21.0,24.0,55,0.00,,,-99.99,,2013-01-19 18:32:00,
2013-01-19 12:37:00,51.0,36.0,27.08,NNW,331,18.0,21.0,55,0.00,,,-99.99,,2013-01-19 18:37:00,
2013-01-19 12:47:00,52.0,36.0,27.08,NW,319,18.0,21.0,55,0.00,,,-99.99,,2013-01-19 18:47:00,
2013-01-19 12:52:00,52.0,36.0,27.08,NNW,329,19.0,21.0,55,0.00,,,-99.99,,2013-01-19 18:52:00,
2013-01-19 12:58:00,52.0,36.0,27.07,NW,323,20.0,23.0,54,0.00,,,-99.99,,2013-01-19 18:58:00,
2013-01-19 13:07:00,52.0,36.0,27.07,NW,309,17.0,20.0,55,0.00,,,-99.99,,2013-01-19 19:07:00,
2013-01-19 13:17:00,52.0,36.0,27.07,NW,319,19.0,21.0,55,0.00,,,-99.99,,2013-01-19 19:17:00,
2013-01-19 13:22:00,52.0,36.0,27.06,NW,317,19.0,21.0,55,0.00,,,-99.99,,2013-01-19 19:22:00,
2013-01-19 13:27:00,53.0,37.0,27.06,NW,320,19.0,21.0,56,0.00,,,-99.99,,2013-01-19 19:27:00,
2013-01-19 13:42:00,53.0,37.0,27.06,NNW,333,19.0,23.0,54,0.00,,,-99.99,,2013-01-19 19:42:00,
2013-01-19 13:52:00,53.0,36.0,27.05,NNW,334,18.0,21.0,53,0.00,,,-99.99,,2013-01-19 19:52:00,
2013-01-19 14:02:00,54.0,37.0,27.05,NNW,344,16.0,19.0,53,0.00,,,-99.99,,2013-01-19 20:02:00,
2013-01-19 14:12:00,54.0,36.0,27.05,NNW,334,17.0,21.0,51,0.00,,,-99.99,,2013-01-19 20:12:00,
2013-01-19 14:22:00,54.0,36.0,27.05,WNW,303,20.0,23.0,51,0.00,,,-99.99,,2013-01-19 20:22:00,
2013-01-19 14:27:00,54.0,36.0,27.06,NNW,336,19.0,23.0,50,0.00,,,-99.99,,2013-01-19 20:27:00,
2013-01-19 14:37:00,54.0,36.0,27.06,NNW,334,18.0,19.0,50,0.00,,,-99.99,,2013-01-19 20:37:00,
2013-01-19 14:42:00,55.0,36.0,27.06,NNW,331,19.0,22.0,49,0.00,,,-99.99,,2013-01-19 20:42:00,
2013-01-19 14:47:00,55.0,37.0,27.06,NNW,341,17.0,19.0,50,0.00,,,-99.99,,2013-01-19 20:47:00,
2013-01-19 14:52:00,55.0,37.0,27.06,NNW,340,17.0,20.0,50,0.00,,,-99.99,,2013-01-19 20:52:00,
2013-01-19 15:03:00,55.0,36.0,27.06,NNW,329,18.0,21.0,49,0.00,,,-99.99,,2013-01-19 21:03:00,
2013-01-19 15:18:00,55.0,37.0,27.06,NNW,338,14.0,17.0,50,0.00,,,-99.99,,2013-01-19 21:18:00,
2013-01-19 15:32:00,55.0,36.0,27.07,NNW,334,15.0,18.0,49,0.00,,,-99.99,,2013-01-19 21:32:00,
2013-01-19 15:37:00,55.0,36.0,27.07,NNW,333,14.0,16.0,49,0.00,,,-99.99,,2013-01-19 21:37:00,
2013-01-19 15:47:00,54.0,36.0,27.07,NNW,336,15.0,18.0,50,0.00,,,-99.99,,2013-01-19 21:47:00,
2013-01-19 15:57:00,54.0,36.0,27.07,NNW,344,14.0,16.0,50,0.00,,,-99.99,,2013-01-19 21:57:00,
2013-01-19 16:02:00,54.0,36.0,27.07,NNW,341,14.0,16.0,51,0.00,,,-99.99,,2013-01-19 22:02:00,
2013-01-19 16:07:00,54.0,36.0,27.07,NW,324,14.0,16.0,51,0.00,,,-99.99,,2013-01-19 22:07:00,
2013-01-19 16:17:00,53.0,36.0,27.07,NNW,343,10.0,13.0,52,0.00,,,-99.99,,2013-01-19 22:17:00,
2013-01-19 16:22:00,53.0,36.0,27.07,North,351,11.0,14.0,53,0.00,,,-99.99,,2013-01-19 22:22:00,
2013-01-19 16:28:00,53.0,36.0,27.08,NNW,331,11.0,13.0,53,0.00,,,-99.99,,2013-01-19 22:28:00,
2013-01-19 16:33:00,53.0,36.0,27.08,NNW,347,10.0,14.0,52,0.00,,,-99.99,,2013-01-19 22:33:00,
2013-01-19 16:42:00,52.0,36.0,27.08,NNW,337,10.0,11.0,54,0.00,,,-99.99,,2013-01-19 22:42:00,
2013-01-19 16:53:00,52.0,36.0,27.08,NNW,341,10.0,11.0,55,0.00,,,-99.99,,2013-01-19 22:53:00,
2013-01-19 17:07:00,50.0,36.0,27.09,North,355,9.0,10.0,56,0.00,,,-99.99,,2013-01-19 23:07:00,
2013-01-19 17:13:00,50.0,36.0,27.09,NNW,347,8.0,9.0,57,0.00,,,-99.99,,2013-01-19 23:13:00,
2013-01-19 17:22:00,49.0,36.0,27.09,NNW,343,6.0,6.0,58,0.00,,,-99.99,,2013-01-19 23:22:00,
2013-01-19 17:27:00,48.0,34.0,27.09,North,355,5.0,6.0,58,0.00,,,-99.99,,2013-01-19 23:27:00,
2013-01-19 17:37:00,48.0,34.0,27.09,North,1,4.0,6.0,58,0.00,,,-99.99,,2013-01-19 23:37:00,
2013-01-19 17:57:00,47.0,32.0,27.09,NNW,348,5.0,5.0,57,0.00,,,-99.99,,2013-01-19 23:57:00,
2013-01-19 18:07:00,47.0,32.0,27.09,North,351,4.0,5.0,57,0.00,,,-99.99,,2013-01-20 00:07:00,
2013-01-19 18:12:00,47.0,32.0,27.09,North,0,0.0,0.0,57,0.00,,,-99.99,,2013-01-20 00:12:00,
2013-01-19 18:22:00,47.0,32.0,27.09,North,0,0.0,0.0,57,0.00,,,-99.99,,2013-01-20 00:22:00,
2013-01-19 18:27:00,47.0,32.0,27.09,North,0,0.0,0.0,57,0.00,,,-99.99,,2013-01-20 00:27:00,
2013-01-19 18:32:00,47.0,32.0,27.09,North,0,0.0,0.0,56,0.00,,,-99.99,,2013-01-20 00:32:00,
2013-01-19 18:42:00,47.0,32.0,27.10,North,0,0.0,0.0,56,0.00,,,-99.99,,2013-01-20 00:42:00,
2013-01-19 18:47:00,47.0,32.0,27.10,North,0,0.0,0.0,57,0.00,,,-99.99,,2013-01-20 00:47:00,
2013-01-19 18:52:00,46.0,32.0,27.10,North,0,0.0,0.0,57,0.00,,,-99.99,,2013-01-20 00:52:00,
2013-01-19 19:02:00,47.0,32.0,27.09,North,0,0.0,0.0,56,0.00,,,-99.99,,2013-01-20 01:02:00,
2013-01-19 19:07:00,47.0,32.0,27.09,North,0,0.0,0.0,56,0.00,,,-99.99,,2013-01-20 01:07:00,
2013-01-19 19:17:00,47.0,32.0,27.10,North,0,0.0,0.0,55,0.00,,,-99.99,,2013-01-20 01:17:00,
2013-01-19 19:27:00,47.0,32.0,27.10,North,0,0.0,0.0,55,0.00,,,-99.99,,2013-01-20 01:27:00,
2013-01-19 19:32:00,47.0,32.0,27.10,North,0,0.0,0.0,55,0.00,,,-99.99,,2013-01-20 01:32:00,
2013-01-19 19:37:00,47.0,32.0,27.10,North,0,0.0,0.0,55,0.00,,,-99.99,,2013-01-20 01:37:00,
2013-01-19 19:42:00,47.0,32.0,27.11,North,0,0.0,0.0,55,0.00,,,-99.99,,2013-01-20 01:42:00,
2013-01-19 19:57:00,45.0,30.0,27.12,WSW,243,4.0,4.0,57,0.00,,,-99.99,,2013-01-20 01:57:00,
2013-01-19 20:02:00,44.0,30.0,27.12,ESE,114,5.0,7.0,58,0.00,,,-99.99,,2013-01-20 02:02:00,
2013-01-19 20:12:00,41.0,30.0,27.12,North,0,0.0,0.0,63,0.00,,,-99.99,,2013-01-20 02:12:00,
2013-01-19 20:17:00,40.0,28.0,27.12,North,0,0.0,0.0,65,0.00,,,-99.99,,2013-01-20 02:17:00,
2013-01-19 20:32:00,41.0,30.0,27.13,North,0,0.0,0.0,64,0.00,,,-99.99,,2013-01-20 02:32:00,
2013-01-19 20:42:00,41.0,30.0,27.14,North,358,4.0,12.0,64,0.00,,,-99.99,,2013-01-20 02:42:00,
2013-01-19 20:47:00,41.0,30.0,27.14,NNE,23,10.0,12.0,65,0.00,,,-99.99,,2013-01-20 02:47:00,
2013-01-19 20:57:00,37.0,28.0,27.15,NNE,25,11.0,11.0,70,0.00,,,-99.99,,2013-01-20 02:57:00,
2013-01-19 21:03:00,36.0,28.0,27.15,NNE,31,11.0,12.0,72,0.00,,,-99.99,,2013-01-20 03:03:00,
2013-01-19 21:12:00,36.0,28.0,27.15,NE,37,10.0,12.0,75,0.00,,,-99.99,,2013-01-20 03:12:00,
2013-01-19 21:28:00,36.0,28.0,27.15,NE,54,9.0,9.0,75,0.00,,,-99.99,,2013-01-20 03:28:00,
2013-01-19 21:37:00,35.0,28.0,27.15,ENE,63,10.0,10.0,76,0.00,,,-99.99,,2013-01-20 03:37:00,
2013-01-19 21:47:00,35.0,28.0,27.14,ENE,68,11.0,11.0,78,0.00,,,-99.99,,2013-01-20 03:47:00,
2013-01-19 21:52:00,34.0,28.0,27.15,ENE,58,10.0,10.0,78,0.00,,,-99.99,,2013-01-20 03:52:00,
2013-01-19 22:03:00,34.0,28.0,27.14,ENE,69,10.0,10.0,80,0.00,,,-99.99,,2013-01-20 04:03:00,
2013-01-19 22:17:00,33.0,28.0,27.14,ENE,68,9.0,10.0,81,0.00,,,-99.99,,2013-01-20 04:17:00,
2013-01-19 22:22:00,33.0,28.0,27.14,ENE,62,10.0,10.0,82,0.00,,,-99.99,,2013-01-20 04:22:00,
2013-01-19 22:27:00,32.0,27.0,27.15,ENE,63,9.0,10.0,82,0.00,,,-99.99,,2013-01-20 04:27:00,
2013-01-19 22:32:00,32.0,27.0,27.15,ENE,68,8.0,9.0,83,0.00,,,-99.99,,2013-01-20 04:32:00,
2013-01-19 22:37:00,32.0,27.0,27.15,ENE,65,8.0,8.0,83,0.00,,,-99.99,,2013-01-20 04:37:00,
2013-01-19 22:47:00,32.0,28.0,27.15,ENE,62,9.0,9.0,84,0.00,,,-99.99,,2013-01-20 04:47:00,
2013-01-19 22:52:00,32.0,28.0,27.15,ENE,63,9.0,9.0,84,0.00,,,-99.99,,2013-01-20 04:52:00,
2013-01-19 22:57:00,32.0,28.0,27.15,ENE,58,8.0,9.0,85,0.00,,,-99.99,,2013-01-20 04:57:00,
2013-01-19 23:02:00,31.0,27.0,27.15,ENE,63,9.0,9.0,85,0.00,,,-99.99,,2013-01-20 05:02:00,
2013-01-19 23:07:00,31.0,27.0,27.15,ENE,65,8.0,9.0,85,0.00,,,-99.99,,2013-01-20 05:07:00,
2013-01-19 23:12:00,31.0,27.0,27.15,ENE,65,8.0,8.0,86,0.00,,,-99.99,,2013-01-20 05:12:00,
2013-01-19 23:17:00,31.0,27.0,27.15,ENE,63,8.0,9.0,86,0.00,,,-99.99,,2013-01-20 05:17:00,
2013-01-19 23:22:00,31.0,27.0,27.15,ENE,72,8.0,9.0,86,0.00,,,-99.99,,2013-01-20 05:22:00,
2013-01-19 23:27:00,31.0,28.0,27.15,NE,54,8.0,10.0,87,0.00,,,-99.99,,2013-01-20 05:27:00,
2013-01-19 23:32:00,31.0,28.0,27.16,ENE,61,9.0,10.0,87,0.00,,,-99.99,,2013-01-20 05:32:00,
2013-01-19 23:37:00,31.0,28.0,27.15,NE,55,8.0,10.0,87,0.00,,,-99.99,,2013-01-20 05:37:00,
2013-01-19 23:42:00,31.0,28.0,27.15,ENE,71,8.0,9.0,87,0.00,,,-99.99,,2013-01-20 05:42:00,
2013-01-19 23:47:00,31.0,28.0,27.15,ENE,63,8.0,9.0,87,0.00,,,-99.99,,2013-01-20 05:47:00,
2013-01-19 23:52:00,31.0,28.0,27.15,ENE,65,8.0,9.0,87,0.00,,,-99.99,,2013-01-20 05:52:00,
2013-01-19 23:57:00,31.0,28.0,27.15,ENE,63,8.0,9.0,88,0.00,,,-99.99,,2013-01-20 05:57:00,